Regional Weather Roundup
Issued by NWS Mobile, AL

Home | Current Version | Previous Version | Text Only | Print | Product List | Glossary On
Versions: 1 2 3 4 5 6 7 8 9 10 11 12 13 14 15 16 17 18 19 20 21 22 23 24 25 26 27 28 29 30 31 32 33 34 35 36 37 38 39 40
000
ASUS44 KMOB 220310
RWRMOB
REGIONAL WEATHER ROUNDUP
NATIONAL WEATHER SERVICE MOBILE AL
1000 PM CDT TUE OCT 21 2014

NOTE: "FAIR" INDICATES FEW OR NO CLOUDS BELOW 12,000 FEET WITH NO
      SIGNIFICANT WEATHER AND/OR OBSTRUCTIONS TO VISIBILITY.

  * THESE STATIONS ARE PART OF THE UNIVERSITY OF SOUTH ALABAMA
    MESONET AND ARE NOT UNDER NWS OR FAA QUALITY CONTROL.

ALZ061>064-220400-
COASTAL ALABAMA

CITY           SKY/WX    TMP DP  RH WIND       PRES   REMARKS
MOBILE REG APT CLEAR     60  55  83 N3        30.04R
BROOKLEY FIELD CLEAR     60  57  89 NW3       30.04R
USA CAMPUS*      N/A     59  54  82 CALM      30.04R
DOG RIVER*     NOT AVBL


CITY           SKY/WX    TMP DP  RH WIND       PRES   REMARKS
MOUNT VERNON*    N/A     54  52  94 CALM      30.04R
SARALAND*      NOT AVBL
BAY MINETTE*   NOT AVBL
LOXLEY*          N/A     57  55  94 CALM      30.03R
ROBERTSDALE*     N/A     59  55  88 CALM      30.02R
FAIRHOPE*        N/A     61  55  82 CALM      30.02R
ELBERTA*         N/A     57  57 100 N3        30.02R
FOLEY*           N/A     55  54  94 CALM      30.01R
GRAND BAY*       N/A     57  55  94 CALM      30.01R
DAUPHIN ISLND* NOT AVBL
BON SCOUR NWR* NOT AVBL
GULF SHORES    CLEAR     60  58  93 CALM      30.02R

$$

ALZ051>060-220400-
INTERIOR SOUTHWEST AND SOUTH CENTRAL ALABAMA

CITY           SKY/WX    TMP DP  RH WIND       PRES   REMARKS
GREENVILLE     CLEAR     57  53  86 CALM      30.03R
EVERGREEN      CLEAR     57  54  89 CALM      30.04R
CASTLEBERRY*   NOT AVBL
ATMORE*          N/A     57  55  94 N3        30.04R
DIXIE*           N/A     61  57  88 CALM      30.01R
ANDALUSIA/OPP  CLEAR     62  55  77 CALM      30.03R
ANDALUSIA*       N/A     64  55  72 CALM      30.02R
FLORALA APT    CLEAR     57  53  86 CALM      30.04R
FLORALA*         N/A     55  54  94 CALM      30.01R

$$

FLZ001>006-220400-
WESTERN FLORIDA PANHANDLE

CITY           SKY/WX    TMP DP  RH WIND       PRES   REMARKS
PENSACOLA      CLEAR     66  54  65 N5        30.01R
NAS PENSACOLA  CLEAR     58  56  93 N5        30.01R
MILTON         CLEAR     59  54  83 N5        30.02R
WHTNG S FIELD  CLEAR     63  54  72 N6        30.02R


CITY           SKY/WX    TMP DP  RH WIND       PRES   REMARKS
WALNUT HILL*   NOT AVBL
JAY*             N/A     64  55  72 N3        30.03R
DUKE FIELD     CLEAR     56  53  88 CALM      30.01R
CRESTVIEW      CLEAR     55  53  93 N3        30.03R
VALPARAISO     PTCLDY    63  52  67 CALM      30.01R
DESTIN         CLEAR     68  58  70 N3        30.01R

$$

MSZ076-079-220400-
INTERIOR SOUTHEAST MISSISSIPPI

CITY           SKY/WX    TMP DP  RH WIND       PRES   REMARKS
LEAKESVILLE*   NOT AVBL
AGRICOLA*      NOT AVBL

$$

MARINE OBSERVATIONS

STATION/POSITION TIME  TEMP    WIND        PRES    WAVE
                       AIR SEA DIR/SP/G            HT/PER
                 (UTC) (F)     (DEG/KT/KT) (MB)    (FT/S)
PASCAGOULA       0300   69     350/  4/  5 1016.3F
PETIT BOIS ISLND 0300   73     350/  5/  6 1016.6S
GRAND BAY        0200   66      20/  2     1017.0S
E DAUPHIN ISLAND 0200   73     320/  7/  8 1016.4R
USCG MOBILE BAY  0300   69 74  340/  2/  4 1015.5R
STATE DOCKS      0300   70 75              1016.6R
MEAHER PARK      0156   69      20/  2     1016.6
WEEKS BAY        0200   61                   N/A
FORT MORGAN      0300   74      10/ 11/ 12 1015.8F
12 S ORANGE BCH  0300   76 78   20/ 14/ 16 1015.8R   1/ 5
PENSACOLA BAY    0300   71 74  360/  5/  7 1016.5S
64 S DAUPHIN ISL 0239   75 79   50/ 10/ 12 1017.0R   1/ 4

$$

SELECTED LOCATIONS ACROSS THE REGION

CITY           SKY/WX    TMP DP  RH WIND       PRES   REMARKS
NEW ORLEANS    CLEAR     67  57  70 S5        30.03R
GULFPORT       CLEAR     62  58  86 CALM      30.02R
PASCAGOULA AP  CLEAR     54  54 100 CALM      30.03R
PASCAGOULA*      N/A     59  59 100 CALM      30.02R
HATTIESBURG    CLEAR     59  57  93 CALM      30.06R
LAUREL         CLEAR     57  54  88 CALM      30.06R
MERIDIAN       CLEAR     56  54  93 CALM      30.06R
JACKSON        CLEAR     58  56  93 CALM      30.06R
MONTGOMERY     CLEAR     61  53  75 NW3       30.02R
TROY           CLEAR     56  53  90 CALM      30.03R
KINSTON*       NOT AVBL
GENEVA*          N/A     55  54  94 CALM      30.04R
ASHFORD*         N/A     64  55  72 CALM      30.02R
DOTHAN         CLEAR     57  53  86 CALM      30.05R
PANAMA CITY    CLEAR     60  55  83 CALM      30.00R

$$




USA.gov is the U.S. government's official web portal to all federal, state and local government web resources and services.